Regional Weather Roundup
Issued by NWS Spokane, WA

Home | Current Version | Previous Version | Text Only | Print | Product List | Glossary On
Versions: 1 2 3 4 5 6 7 8 9 10 11 12 13 14 15 16 17 18 19 20 21 22 23 24 25 26 27 28 29 30 31 32 33 34 35 36 37 38 39 40 41 42 43 44 45 46 47 48 49 50
805
NZUS01 KOTX 210757
RWROTX

Eastern Washington/Northern Idaho Roundup
National Weather Service, Spokane WA
100 AM PDT SAT OCT 21 2017

Note: "fair" indicated few or no clouds below 12,000 feet with no
significant weather and/or obstructions to visibility.

...Northeast Washington and Northern Idaho Panhandle...

CITY           SKY/WX    TMP DP  RH WIND       PRES   REMARKS
Spokane Intl   PTCLDY    37  34  89 SW15      29.89R
Spokane Downto PTCLDY    41  35  79 VRB5      29.92R
Deer Park      CLEAR     38  34  85 S8        29.89R

...Southeast Washington and southern Idaho Panhandle...

CITY           SKY/WX    TMP DP  RH WIND       PRES   REMARKS
Walla Walla    PTCLDY    47  32  56 S14       30.00R
Pullman/Moscow PTCLDY    40  31  70 SW16G24   29.96R
Lowell           N/A     41  40  96 CALM      30.01R

...Columbia Basin...

CITY           SKY/WX    TMP DP  RH WIND       PRES   REMARKS
Ephrata        PTCLDY    41  25  53 W9        29.89R
Moses Lake     PTCLDY    44  29  55 SW12      29.90R
Pasco          MOCLDY    48  37  65 SW14G20   29.98S
Hermiston      MOCLDY    41  34  76 CALM      30.01S
Pendleton      MOCLDY    41  31  67 S10       30.00R

...East Slopes Cascades...

CITY           SKY/WX    TMP DP  RH WIND       PRES   REMARKS
The Dalles     CLOUDY    44  41  89 CALM      30.01S
Yakima         CLOUDY    41  31  67 CALM      29.94R
Ellensburg     MOCLDY    38  30  73 W7        29.91S
Stampede Pass  CLOUDY    32  31  96 CALM      29.88S
Omak           PTCLDY    36  31  82 W5        29.82R
Sunnyside      PTSUNNY   37  32  83 N3        29.97S

...Southern British Columbia...

CITY           SKY/WX    TMP DP  RH WIND       PRES   REMARKS

...Western Montana...

CITY           SKY/WX    TMP DP  RH WIND       PRES   REMARKS
Missoula       CLOUDY    40  34  79 E6        29.89R

...Neighboring Cities...

CITY           SKY/WX    TMP DP  RH WIND       PRES   REMARKS
Seattle        CLOUDY    47  39  74 SE9       29.92F
Portland       LGT RAIN  49  44  83 SE9       29.98F
Boise          CLEAR     38  31  76 CALM      30.06R
Great Falls    CLEAR     36  24  62 SW14      29.71R



USA.gov is the U.S. government's official web portal to all federal, state and local government web resources and services.